User: anonymous   Login
Location: Napier
(39.4830°S, 176.9170°E)
Time: 14:25:57
(UTC+13:00)
Language:

Cosmos 1844 Rocket - Orbit

View from above orbital plane
View from above orbital plane
View from above satellite
View from above satellite

Ground track
Ground track

The orbit data is extracted from the following two-line orbital elements,

1 17974U 87041B   19077.78918971 -.00000252  00000-0 -10082-3 0  9997
2 17974  71.0107   2.2520 0012595 145.1545 235.9572 14.17250699647301
Epoch (UTC): 18 March 2019 18:56:25
Eccentricity: 0.0012595
inclination: 71.0107°
perigee height: 825 km
apogee height: 844 km
right ascension of ascending node: 2.2520°
argument of perigee: 145.1545°
revolutions per day: 14.17250699
mean anomaly at epoch: 235.9572°
orbit number at epoch: 64730

The dashed part of the orbit path shows where the satellite is in the earth's shadow,  

DLR